Location: Kawakawa
(35.3830°S, 174.0670°E)
Time: 03:22:26
(UTC+12:00)

Cosmos 1339 Rocket - Pass Details

Date: 15 August 2020
Orbit: 941 x 1006 km, 82.9° (Epoch: 19 September)

Event Time Altitude Azimuth Distance (km) Brightness Sun altitude
Rises 19:58:38 0° 357° (N) 3,620 7.5 -26.3°
Reaches altitude 10° 20:01:07 10° 358° (N) 2,675 6.8 -26.8°
Maximum altitude 20:07:14 85° 84° (E) 962 4.3 -28.1°
Drops below altitude 10° 20:13:23 10° 172° (S) 2,687 6.7 -29.3°
Sets 20:15:53 0° 172° (S) 3,638 7.5 -29.8°
